GFSNGP_sfc_rhum_147.txt.gz
RH
55 49 62 65 46 56 59 64 66 78 92 91 92 97 92 94 98 93 91 92 98 91 94 92 90 90 87 88 88 88 87 87 88 82 84 87 91 92 93 94 96 95 96 96
68 48 59 66 53 54 63 72 89 90 90 81 87 84 90 88 91 94 94 92 82 76 83 87 84 88 84 87 86 84 85 87 85 78 77 81 82 88 92 91 96 96 96 97
89 54 70 79 78 68 74 77 83 92 83 90 80 71 79 82 78 81 81 86 80 78 82 90 88 86 90 85 82 82 84 80 82 76 76 76 74 74 77 82 86 88 93 96
89 71 95 75 78 74 87 91 89 88 86 83 75 78 76 75 80 75 76 80 77 87 89 88 88 88 86 85 84 85 81 82 81 86 78 75 71 73 73 72 74 74 80 85
90 86 84 84 75 81 73 86 82 86 84 77 77 79 85 74 76 83 85 85 88 89 92 90 91 88 87 87 86 85 84 82 83 90 77 78 74 73 74 74 72 72 71 80
93 79 92 78 72 62 59 84 78 78 82 81 81 96 96 82 77 81 79 82 84 89 93 90 94 90 92 96 91 94 92 88 84 86 87 81 78 74 73 70 67 68 69 79
86 90 83 68 64 55 69 77 78 75 79 81 93 91 86 78 79 80 84 86 86 91 96 95 93 94 96 94 95 93 93 88 86 86 85 81 80 74 73 72 70 76 75 78
86 90 86 62 62 70 81 87 80 80 81 84 86 82 80 76 80 81 89 91 89 95 94 92 93 96 98 93 94 92 94 92 93 92 88 81 86 86 79 79 82 84 86 85
81 88 85 84 83 82 78 79 82 78 76 80 80 80 78 81 84 83 92 97 95 96 89 88 92 96 98 94 93 93 94 94 94 94 92 95 89 90 92 88 90 89 89 90
85 85 88 84 79 76 70 76 75 71 73 74 79 78 83 85 82 88 97 98 98 95 96 96 92 85 94 91 83 88 91 92 91 95 92 92 96 89 92 92 92 92 92 94
94 90 82 79 79 78 74 71 71 67 66 72 76 80 80 89 83 87 92 93 96 98 98 97 93 89 90 88 89 81 83 85 89 89 96 95 94 94 92 88 80 89 91 93
92 84 84 82 82 70 70 68 68 66 67 65 69 74 73 84 82 84 86 84 89 84 86 92 86 87 87 86 89 82 78 85 91 90 94 94 98 95 75 72 69 69 69 77
86 79 83 82 74 68 70 67 62 63 63 66 64 64 68 76 80 78 79 78 84 94 94 97 98 97 92 87 83 90 96 94 94 92 95 96 98 98 99 91 72 73 72 73
76 77 85 75 86 74 68 68 62 65 65 63 65 64 66 72 75 78 79 78 77 80 88 90 93 96 96 97 98 98 98 96 99 99 99 99 100 100 100 100 98 94 82 77
79 78 77 83 79 77 71 66 69 70 69 69 67 70 69 74 77 79 77 68 64 80 84 87 94 94 93 87 88 96 95 99 99 99 98 97 96 97 98 98 98 98 93 89
81 78 76 79 79 75 71 70 71 72 68 68 72 72 69 71 77 79 78 78 80 91 93 95 89 93 94 94 96 97 97 94 96 98 98 98 98 98 97 96 95 97 96 98
85 89 83 81 78 74 70 67 67 67 66 68 70 72 72 75 78 81 88 91 92 95 95 96 91 97 96 97 97 98 99 97 96 98 98 98 98 99 99 99 99 98 99 98
75 77 73 72 73 74 76 74 72 70 68 67 74 83 89 88 90 96 95 97 98 99 98 97 98 96 94 97 97 98 98 98 98 98 98 98 98 98 98 98 98 99 99 99
80 83 84 79 76 77 78 76 75 73 81 86 88 88 88 91 95 97 100 100 100 100 94 97 99 91 94 96 92 97 97 97 98 98 99 100 98 98 99 100 99 100 100 100
88 86 84 87 86 84 89 91 88 89 92 88 93 95 96 99 98 100 100 98 95 95 96 94 96 89 92 91 98 97 97 97 97 99 99 99 100 100 100 100 100 100 100 100
90 90 90 89 90 92 87 89 89 91 95 90 87 90 90 96 99 98 100 97 93 93 90 92 88 87 92 92 95 98 98 99 100 99 100 100 100 100 100 100 100 100 100 100
94 91 91 91 90 94 96 91 90 91 92 96 99 97 98 100 100 100 98 93 97 97 90 93 89 79 91 100 98 99 98 98 99 100 100 100 100 100 100 100 100 100 100 100
93 93 93 91 89 90 97 94 94 88 90 91 92 93 91 87 90 94 89 80 81 95 86 95 90 90 95 100 100 100 100 100 99 99 100 100 100 100 100 100 100 100 100 100
95 94 95 95 93 92 95 96 96 96 95 93 92 90 87 96 100 84 88 96 89 95 95 95 94 94 96 100 100 100 100 100 100 100 99 100 100 100 100 100 100 100 100 100
94 95 95 95 93 94 94 96 96 97 95 91 91 86 84 87 89 95 96 96 99 95 93 99 94 94 98 99 100 100 100 99 99 100 100 100 100 100 100 100 100 100 100 100
95 95 96 95 96 95 94 94 96 97 95 98 97 99 98 96 96 96 98 98 96 94 92 96 97 97 97 98 98 99 100 99 98 99 98 98 98 98 98 97 98 98 96 95
98 97 97 98 97 94 94 92 96 97 97 96 96 97 94 97 97 98 100 100 96 94 93 94 94 96 97 96 96 96 96 97 96 94 96 97 98 97 96 94 94 94 95 96

GFSNGP_sfc_rhum_150.txt.gz
RH
64 51 63 78 65 59 72 60 61 63 77 87 91 95 96 94 94 92 92 93 98 96 96 96 94 94 92 89 86 89 85 83 85 82 85 84 84 84 85 85 86 85 87 88
73 58 59 79 67 58 53 64 80 85 78 82 88 90 90 92 94 92 94 93 86 84 81 81 85 89 87 82 83 86 80 79 80 79 77 80 81 82 82 83 85 85 89 89
87 65 94 96 87 77 65 73 76 82 76 90 92 82 85 89 80 82 82 85 84 87 80 80 91 87 92 89 83 78 79 76 78 84 74 75 72 73 76 79 81 83 87 89
96 89 96 75 79 74 77 83 86 86 90 84 82 81 81 81 82 75 76 80 82 90 87 88 91 90 86 86 84 81 77 77 79 82 73 74 72 72 74 71 71 71 78 84
97 96 84 83 76 78 72 75 82 91 88 83 80 80 91 76 78 85 88 95 95 96 86 91 92 88 86 88 85 85 82 81 80 84 72 75 77 75 74 72 67 69 67 78
97 94 95 75 72 62 60 81 80 81 83 81 78 93 91 83 81 86 87 88 94 94 90 91 96 89 93 95 93 96 94 87 83 80 75 76 77 77 72 70 62 64 62 73
90 96 77 64 66 59 77 80 80 76 78 78 86 88 87 80 84 86 90 93 91 92 96 97 96 93 93 90 97 97 93 86 85 84 82 72 77 78 73 71 68 73 71 72
84 91 86 65 59 68 80 88 81 80 78 81 88 84 80 78 83 87 94 94 92 92 94 94 95 96 92 91 98 96 95 94 94 94 86 79 85 88 78 78 80 85 85 83
79 82 84 83 79 81 80 85 83 80 82 80 81 78 76 82 82 86 96 98 90 95 92 92 95 98 94 98 96 96 94 96 96 95 94 95 97 94 92 89 89 88 90 91
82 84 86 84 81 78 76 80 75 74 75 75 80 78 83 83 82 91 99 99 98 94 97 97 96 85 97 89 86 88 95 95 95 97 94 95 95 98 94 94 93 93 92 94
94 90 83 80 84 80 79 76 77 73 72 76 78 84 84 85 84 90 96 94 95 97 98 98 96 92 92 89 85 78 81 82 89 90 97 96 95 95 96 90 82 92 94 94
89 83 82 83 83 76 78 77 74 77 81 76 76 84 86 84 84 87 92 92 89 88 89 94 88 87 87 87 85 80 78 79 93 91 96 96 98 95 78 74 71 70 71 80
84 81 84 85 78 71 76 74 70 73 75 81 76 80 81 84 83 82 85 84 83 93 95 97 98 96 91 87 79 88 97 94 96 92 97 98 100 100 100 96 74 73 72 74
81 79 86 79 85 74 71 72 68 70 70 70 72 71 77 80 80 80 81 80 80 85 90 94 94 95 96 97 97 98 99 96 100 100 100 100 100 100 100 100 100 96 85 75
84 78 79 80 75 78 73 70 72 72 72 74 69 72 74 83 84 81 79 67 64 84 86 88 95 92 92 89 90 96 96 100 100 99 99 98 98 98 98 98 98 100 94 92
85 80 76 76 79 77 72 70 72 73 71 72 74 73 73 75 80 83 81 76 81 88 93 95 91 93 94 95 97 97 97 96 97 98 98 97 97 96 95 95 95 96 96 98
85 89 81 80 79 74 70 67 66 68 69 70 71 71 74 76 82 86 92 91 93 93 94 94 92 97 97 98 98 98 98 98 97 98 98 98 98 97 97 98 98 97 100 99
78 77 74 70 73 74 74 72 71 69 69 70 77 85 90 88 88 92 94 96 98 100 99 97 97 98 97 98 97 97 98 98 98 98 98 98 98 98 98 97 96 98 97 95
82 81 79 72 72 73 74 74 73 72 82 88 89 89 89 93 95 97 99 100 100 100 94 96 100 98 96 97 94 98 98 98 98 98 99 100 99 98 99 100 99 100 99 98
89 87 83 86 84 80 88 92 88 88 90 89 93 94 96 100 99 99 100 99 94 96 97 95 95 88 88 94 99 98 97 98 97 100 99 99 100 100 100 100 100 100 100 100
92 91 91 90 92 94 88 90 89 90 94 90 87 89 88 93 98 99 100 100 93 92 93 92 93 90 90 97 97 99 98 99 100 98 100 100 100 100 100 100 100 100 100 100
95 92 92 92 92 94 96 93 92 93 93 95 98 95 94 96 100 100 99 92 97 98 92 89 95 88 90 99 97 99 97 97 99 100 100 100 100 100 100 100 100 100 100 100
94 94 93 92 91 91 96 95 96 91 92 92 92 93 91 90 92 97 96 85 83 93 93 95 96 96 92 100 100 100 100 100 100 100 100 100 100 100 100 100 100 100 100 100
96 96 96 95 93 92 93 94 94 95 94 95 95 94 91 97 100 88 89 96 94 98 96 95 97 95 94 100 100 100 100 100 100 100 99 100 100 100 100 100 100 100 100 100
94 96 96 94 93 95 93 94 94 95 92 89 89 83 82 85 89 94 95 94 100 98 97 100 98 96 97 98 100 100 100 100 100 100 100 100 100 100 100 100 100 100 100 100
96 96 96 96 94 92 93 92 95 94 92 96 94 98 97 96 96 96 98 98 98 99 97 98 99 99 99 97 97 97 98 98 99 99 100 98 98 98 99 98 99 97 97 98
97 96 96 98 97 94 93 92 95 95 95 96 94 97 93 98 98 98 100 100 100 99 99 99 99 98 98 98 97 96 96 96 96 96 97 96 96 97 97 97 98 97 96 97

GFSNGP_sfc_rhum_153.txt.gz
RH
50 47 51 52 52 49 77 82 93 78 81 87 93 91 96 94 91 86 85 85 90 89 89 83 89 90 82 81 79 80 80 81 83 76 84 78 78 78 84 83 82 83 85 86
66 51 63 90 57 53 62 78 92 98 69 70 73 74 82 78 87 85 86 82 78 72 70 67 68 72 69 71 75 70 73 75 75 66 60 68 72 74 74 76 80 81 86 88
82 64 97 97 86 75 64 57 68 75 65 84 86 77 72 72 67 71 74 75 74 70 65 67 67 67 68 67 65 67 68 69 69 55 53 54 54 54 60 63 69 75 85 88
87 90 96 72 69 68 82 71 80 70 82 76 73 69 66 62 62 64 66 68 69 71 66 67 66 66 64 63 64 66 67 67 67 59 50 51 50 50 52 48 52 51 64 73
89 77 71 60 68 70 67 64 68 74 79 73 71 66 73 63 61 62 66 69 71 65 66 72 70 66 64 65 64 65 69 69 66 66 49 52 54 51 50 46 47 46 48 57
90 89 80 64 63 54 50 73 69 69 74 74 62 74 67 66 64 67 70 69 70 62 68 78 86 72 79 89 83 88 79 68 62 66 54 55 56 52 48 44 43 44 44 53
85 92 78 54 60 54 70 86 73 67 69 66 66 66 67 65 67 67 68 68 62 62 74 83 86 82 87 94 96 92 87 70 69 64 62 56 56 53 50 45 47 52 52 53
94 92 84 61 56 63 80 77 71 69 67 70 76 73 69 66 69 69 73 73 63 67 74 79 77 88 88 96 94 89 90 90 86 87 71 66 68 71 59 56 62 70 72 71
66 72 76 72 70 67 67 69 71 68 65 69 71 69 66 68 69 70 78 83 69 75 76 75 76 82 89 89 86 88 89 92 90 85 88 88 86 86 80 78 77 79 77 83
70 75 75 72 70 66 65 68 64 63 65 65 67 64 64 63 64 72 89 87 82 80 87 86 77 72 74 66 60 68 80 82 84 86 84 86 85 82 83 85 84 84 86 87
76 78 76 70 67 68 69 66 66 63 64 63 63 64 62 62 63 65 73 69 82 88 89 89 80 72 66 61 57 60 65 65 68 70 84 82 83 87 85 83 81 84 87 87
93 77 71 69 72 70 72 68 66 67 68 63 60 64 61 62 61 62 64 60 64 73 74 74 68 69 66 64 56 56 57 59 66 63 70 74 77 77 73 72 70 68 70 77
78 78 79 78 71 66 71 70 64 64 63 66 63 62 60 62 61 67 63 61 57 77 80 88 89 88 79 72 62 75 81 77 70 71 73 75 78 78 83 77 69 72 69 72
74 72 80 71 77 69 66 67 66 63 62 63 65 61 61 62 64 63 64 60 54 63 79 81 82 86 88 91 90 91 89 91 84 87 86 86 85 85 86 86 86 85 77 76
73 70 70 72 69 69 66 64 67 68 67 67 64 65 62 65 66 64 59 57 52 61 67 70 74 79 79 77 80 82 80 80 84 82 79 78 75 76 75 75 78 79 74 70
74 70 67 68 71 70 65 62 63 64 64 63 64 65 62 62 64 63 62 56 60 66 72 86 78 81 83 86 87 78 78 86 82 74 74 72 71 70 68 68 68 71 73 79
75 79 73 72 69 66 63 58 56 58 60 60 60 60 62 65 68 71 71 71 81 86 86 87 86 87 86 91 89 78 74 72 86 67 69 70 70 70 67 70 71 69 73 82
64 63 62 62 64 64 63 60 60 59 61 59 67 79 88 86 79 85 87 88 90 91 89 88 87 87 86 89 85 74 72 69 70 73 70 75 70 67 72 71 68 71 73 70
67 68 68 63 62 62 61 62 61 62 77 86 88 87 87 87 88 89 93 94 93 88 79 89 90 88 80 84 78 72 74 77 73 69 73 83 80 72 77 80 77 79 75 75
78 74 71 76 76 74 82 86 86 88 90 89 92 92 91 92 92 93 92 90 83 76 86 85 85 80 73 71 83 69 77 82 75 77 86 78 85 87 85 86 86 84 86 85
92 91 90 88 90 90 87 88 88 89 92 89 87 88 88 89 93 94 96 82 82 90 84 86 74 65 54 58 67 78 85 87 87 84 85 87 89 88 89 90 90 90 90 88
93 93 92 91 91 92 91 90 89 90 91 90 91 92 92 91 94 94 91 80 71 90 76 71 67 72 59 83 60 84 84 84 85 87 88 90 90 90 88 88 89 89 90 91
93 91 92 92 91 90 93 92 92 89 90 90 90 90 85 76 79 85 82 73 69 85 72 75 79 91 87 83 83 88 90 91 91 89 89 90 89 90 89 88 87 89 90 88
92 91 92 91 92 88 90 90 90 88 90 90 90 90 83 87 88 72 68 82 81 86 83 84 92 91 88 87 84 86 91 92 92 92 88 97 92 92 92 93 92 90 90 90
92 93 93 93 88 84 86 88 86 86 86 81 81 77 77 70 85 78 86 81 85 84 84 94 93 92 89 86 85 85 87 90 93 94 93 93 92 91 91 92 93 92 92 92
88 84 84 88 82 80 78 79 78 79 77 82 82 88 87 83 79 76 82 85 80 82 81 90 93 92 89 87 86 86 85 81 87 91 91 90 91 91 90 88 90 90 91 91
88 88 84 83 80 78 78 77 82 82 84 89 85 87 84 89 88 84 87 90 92 93 93 94 92 92 87 88 88 86 86 87 89 87 90 91 92 92 92 92 91 90 91 92

GFSNGP_sfc_rhum_156.txt.gz
RH
26 24 27 33 33 32 43 47 70 68 72 88 98 98 100 100 89 83 79 79 93 98 89 87 92 90 72 76 68 74 82 77 76 62 77 70 69 67 80 78 76 78 80 81
42 32 35 49 42 39 38 42 48 60 62 46 55 58 75 70 89 84 87 76 70 66 58 56 54 57 54 58 61 57 60 62 59 51 47 54 58 59 58 68 75 79 83 91
64 40 63 91 80 58 47 42 43 57 59 65 60 58 61 57 60 62 65 63 57 53 52 53 52 52 52 50 51 51 53 52 51 44 42 42 40 40 41 46 51 62 83 88
69 53 92 67 43 47 82 58 68 48 53 57 50 55 50 46 49 53 55 54 54 52 51 52 49 48 48 47 49 52 51 49 49 44 41 40 37 37 37 36 37 37 46 55
73 60 46 34 31 58 62 50 37 49 47 50 54 52 56 46 45 49 49 50 50 47 52 54 50 48 48 49 49 51 51 49 49 47 41 41 38 38 35 34 35 34 37 42
64 79 60 44 43 42 44 65 36 41 55 58 53 60 57 50 49 50 48 47 47 47 51 66 69 54 71 79 72 77 63 54 47 47 43 42 40 39 35 34 33 33 36 43
71 81 60 36 40 42 59 72 48 46 52 54 51 51 55 53 52 47 45 46 45 47 55 64 81 72 85 84 86 84 80 58 57 46 48 43 43 39 37 36 38 42 43 43
74 90 84 41 48 50 71 61 59 56 55 57 61 60 57 52 51 50 49 50 44 48 54 58 61 80 85 86 84 81 81 81 78 78 61 53 57 58 46 44 51 60 63 61
65 57 57 45 52 51 49 54 59 53 50 56 56 55 52 55 53 52 59 64 50 54 55 52 57 71 82 82 78 82 79 83 79 78 81 81 81 80 73 71 69 74 71 76
60 48 46 51 52 49 47 50 48 47 50 50 52 51 52 51 48 54 78 75 67 65 71 67 55 54 60 50 47 66 76 77 79 78 81 80 80 79 78 80 79 79 80 81
60 54 57 51 52 48 50 50 50 47 48 48 49 50 49 46 45 50 60 58 73 77 77 76 63 51 46 43 43 44 53 52 54 62 79 78 81 82 81 80 78 82 82 81
89 56 54 47 52 51 54 51 49 50 50 47 45 47 43 43 42 41 43 45 52 58 58 56 48 46 45 43 41 40 41 44 53 48 58 65 73 78 68 68 67 66 67 74
56 59 62 64 54 51 53 50 48 50 48 49 45 42 41 42 42 45 38 38 41 61 63 72 70 70 57 52 48 64 76 71 59 61 63 68 70 72 81 80 65 68 67 68
54 58 71 63 68 55 53 52 53 47 48 47 44 42 44 44 47 40 38 36 35 49 70 75 78 85 84 86 80 81 84 72 84 87 87 88 88 88 86 84 80 81 72 68
57 55 56 56 57 56 53 52 54 53 51 51 47 47 45 46 45 41 38 37 36 41 49 51 58 75 75 72 74 79 77 75 80 80 76 74 71 72 70 70 72 73 69 60
56 53 55 59 58 58 57 54 51 52 53 52 51 50 46 44 44 43 41 40 41 48 54 73 72 77 81 80 80 74 74 73 74 67 68 66 63 63 58 59 58 60 63 69
61 63 58 59 59 56 53 49 46 48 49 50 51 49 46 48 48 49 51 51 62 73 72 80 82 86 84 86 83 68 67 63 66 59 58 58 60 59 56 59 61 58 62 78
51 50 49 51 54 55 53 50 48 49 50 48 55 68 78 75 66 68 70 71 77 81 77 76 79 85 83 83 79 61 60 58 57 62 58 66 62 54 60 60 58 61 64 61
54 54 54 52 52 52 51 50 50 49 62 79 85 84 84 83 79 82 84 87 88 85 78 82 81 81 76 78 67 58 61 66 61 56 61 64 70 60 66 70 67 68 65 64
63 61 58 59 66 61 76 90 91 86 85 86 84 87 87 87 86 89 88 87 78 75 81 79 78 72 67 62 70 48 62 72 64 65 74 67 74 77 73 69 70 72 76 75
99 99 99 94 94 97 94 91 88 87 87 87 85 85 84 82 86 86 89 76 78 82 76 72 60 50 46 45 51 61 71 77 77 74 74 76 76 74 74 75 75 76 78 76
100 96 93 89 88 93 91 93 91 87 87 86 85 86 86 88 88 88 79 71 57 81 64 60 56 56 46 64 45 67 68 69 72 73 74 76 77 78 78 76 77 77 77 77
100 98 93 89 91 97 91 90 88 86 86 87 87 85 81 70 70 76 74 64 62 76 63 63 61 68 71 78 74 80 77 75 75 75 76 77 78 79 78 77 76 76 78 78
97 96 97 94 89 83 88 96 86 86 84 84 84 84 79 85 84 60 55 68 70 73 78 74 79 80 81 82 83 82 80 79 78 80 74 79 81 80 78 78 77 76 77 77
94 93 92 90 86 78 87 91 82 83 82 76 74 70 72 63 85 74 79 78 72 76 79 77 84 85 86 84 85 83 82 81 81 80 79 80 79 79 79 78 78 79 78 77
94 78 77 88 78 69 66 68 69 69 67 78 78 87 86 79 73 73 77 78 74 70 74 84 86 89 86 83 83 82 81 75 79 81 81 79 79 79 80 79 80 79 80 79
81 77 72 69 64 63 63 62 72 75 75 89 85 87 82 87 84 79 79 83 80 81 80 80 85 86 83 84 83 81 82 80 79 77 81 82 82 84 84 84 86 88 88 90

GFSNGP_sfc_rhum_159.txt.gz
RH
25 20 20 22 20 19 22 25 42 45 42 48 98 99 100 100 78 76 77 78 93 96 87 89 97 93 68 68 60 64 76 66 63 52 60 57 57 55 66 66 65 69 77 74
40 28 25 27 20 18 20 22 25 35 34 28 59 64 81 88 98 93 76 67 67 67 62 52 53 58 49 52 53 50 52 51 48 43 41 46 48 48 47 53 59 69 75 88
70 35 38 60 54 34 27 25 30 43 36 33 48 52 61 74 85 71 64 62 56 50 49 47 46 46 44 43 45 43 43 42 41 37 37 38 35 35 37 42 44 52 80 82
64 47 74 55 29 29 65 42 60 46 42 37 50 47 47 48 58 52 52 51 46 44 45 46 44 43 44 39 42 42 42 40 38 36 37 35 34 34 36 35 36 37 43 48
74 55 36 26 23 33 43 42 31 34 31 32 46 45 57 54 42 44 46 44 42 41 46 47 43 41 39 40 41 43 41 40 39 38 36 36 36 35 34 34 35 35 37 41
56 63 59 32 32 30 32 57 33 29 32 42 47 66 60 41 41 42 41 39 40 42 46 53 59 47 64 71 64 70 52 46 37 40 37 38 37 36 34 33 34 34 37 41
67 73 47 25 30 35 54 61 43 36 39 46 52 47 48 43 43 40 39 40 41 41 46 63 74 66 85 83 85 82 78 56 56 43 44 42 42 38 36 36 40 44 44 44
67 74 74 28 35 47 60 48 46 44 45 51 55 52 49 46 47 44 42 40 37 41 45 52 56 80 84 86 83 80 79 79 78 77 57 50 55 57 47 46 52 59 60 61
53 55 48 36 35 43 42 44 49 48 44 52 52 52 50 52 47 44 45 52 40 40 45 45 49 65 81 82 80 80 78 82 78 78 82 83 83 82 72 68 68 74 72 76
49 40 36 34 37 41 39 42 40 40 43 45 48 47 47 47 45 47 65 71 46 48 53 53 47 48 54 46 49 65 77 79 80 79 85 82 81 81 79 80 80 78 80 81
54 43 37 39 37 41 41 42 40 39 42 41 43 44 44 43 43 48 55 50 62 70 70 65 48 43 40 37 36 40 47 46 48 60 81 81 83 80 83 81 78 84 83 84
88 54 45 41 43 40 45 42 40 43 43 40 39 42 40 40 38 44 44 46 51 54 53 50 40 37 36 36 35 37 39 41 48 46 55 62 71 84 64 65 62 63 65 74
48 47 49 55 43 41 44 40 40 41 39 42 38 38 36 36 38 44 34 39 40 55 49 66 83 72 43 41 42 51 58 58 54 62 60 66 69 72 80 84 67 65 62 63
42 48 58 52 55 45 42 40 45 38 39 40 38 35 36 37 38 33 32 31 32 43 61 67 70 83 82 85 80 79 83 67 82 84 84 83 82 81 80 79 79 80 81 66
48 45 49 47 47 47 42 43 45 46 45 43 39 40 40 40 40 33 30 29 33 41 49 48 52 72 71 69 68 73 75 73 77 77 74 69 70 68 66 67 68 69 65 73
47 43 45 51 50 50 48 47 48 49 49 45 44 43 41 40 37 32 30 31 35 43 43 61 59 75 76 74 74 71 73 72 72 65 65 65 62 61 57 57 56 58 59 64
55 57 51 54 54 52 50 47 44 45 46 47 46 44 42 43 40 38 37 38 61 77 76 76 79 85 84 81 79 66 66 64 68 59 58 56 57 58 54 57 60 57 59 81
44 45 43 44 50 53 51 49 45 46 48 47 51 70 86 75 58 60 66 69 77 80 76 78 82 88 85 81 77 61 58 57 56 61 57 62 60 54 55 57 56 57 60 64
47 47 47 45 47 50 51 50 47 47 68 89 86 89 94 91 96 89 86 82 85 84 80 79 77 81 78 79 66 59 57 61 57 52 56 58 71 61 63 68 65 65 62 62
57 56 54 53 58 58 77 93 99 96 97 92 90 89 89 85 90 85 84 87 82 76 96 78 78 72 64 62 70 51 57 68 62 64 71 65 72 75 72 65 66 69 76 77
99 100 100 100 100 100 100 100 92 94 93 92 91 88 86 88 87 87 88 79 88 85 80 74 66 53 47 47 54 64 64 73 76 73 73 75 78 76 74 75 76 77 78 79
100 100 100 100 100 100 100 100 100 95 91 89 87 90 86 90 88 86 82 73 57 79 68 59 55 53 43 60 46 64 62 67 70 72 74 75 76 78 78 76 78 76 76 77
100 98 97 100 99 99 99 99 100 99 90 87 87 90 86 72 72 76 75 65 60 78 65 60 61 62 63 76 70 72 74 74 74 74 75 78 79 78 77 75 76 77 76 77
99 97 100 99 96 79 90 99 88 90 96 95 94 89 83 86 93 59 54 72 70 77 76 76 74 67 72 81 80 79 78 80 79 80 76 74 80 78 79 80 76 75 76 79
100 99 98 98 85 77 86 90 82 82 83 72 71 72 74 64 89 78 79 77 71 74 80 76 72 75 85 82 80 80 84 82 83 83 79 80 79 81 80 80 81 82 81 78
93 78 79 93 81 67 64 68 68 68 67 79 81 94 90 82 72 75 84 81 78 74 77 84 84 86 85 80 78 84 82 78 79 78 77 76 76 76 78 79 80 80 81 82
79 77 69 67 61 61 62 61 71 76 75 93 91 93 85 88 88 81 81 88 86 83 80 82 84 80 79 80 80 82 81 80 75 76 79 80 82 85 85 85 89 89 87 88

GFSNGP_sfc_rhum_162.txt.gz
RH
31 27 27 27 24 22 23 24 33 34 29 31 75 98 100 96 80 80 80 80 93 96 92 89 94 94 75 74 80 85 88 75 74 68 68 65 65 66 77 75 75 75 80 84
47 33 31 34 28 25 22 19 20 23 24 24 53 64 77 78 80 83 86 92 97 92 72 69 70 75 53 60 59 56 58 57 54 52 50 58 60 61 64 68 80 84 85 92
64 38 44 69 55 35 29 26 30 36 38 37 52 59 66 72 75 86 91 95 90 63 56 50 49 47 50 47 49 47 46 43 39 40 42 47 42 43 49 59 64 72 82 81
71 58 86 51 25 26 43 37 47 35 40 39 43 52 65 77 78 83 90 74 56 52 50 50 49 48 50 43 46 46 44 40 37 39 40 40 41 44 50 50 52 51 58 60
86 74 49 35 26 28 54 60 61 30 30 30 37 58 66 63 64 76 58 52 46 46 49 53 49 46 43 45 45 43 41 40 40 40 40 42 46 50 49 50 52 53 50 55
70 74 59 39 41 54 37 63 35 34 35 50 52 65 65 61 55 49 46 44 44 45 48 62 66 54 80 80 73 76 55 47 39 43 44 47 53 53 52 51 50 52 53 58
76 76 46 25 25 37 68 68 44 42 40 52 62 58 74 57 47 44 43 42 44 47 55 70 80 78 92 93 94 92 86 63 65 50 54 56 61 57 56 56 59 62 62 64
67 68 76 29 31 74 65 47 47 47 51 68 61 57 53 48 48 46 44 44 43 48 57 64 69 89 94 95 94 92 91 91 90 89 67 63 72 76 64 65 70 78 78 81
50 66 68 67 64 49 43 44 48 48 50 55 55 54 52 54 50 48 48 53 44 48 55 56 59 76 92 94 91 93 93 93 92 91 92 91 91 92 87 84 87 87 87 93
73 42 36 38 43 47 38 44 41 42 50 50 54 51 52 51 48 48 60 70 47 53 60 61 57 56 67 60 61 76 88 91 92 92 91 91 92 92 91 92 92 92 92 93
63 50 42 41 41 40 41 40 38 39 47 47 49 50 49 48 46 48 54 50 61 70 71 68 56 52 46 45 47 53 62 63 67 78 88 92 92 92 95 93 87 95 95 96
84 64 59 51 45 38 45 43 40 43 45 42 43 46 45 46 46 52 50 50 55 62 60 55 45 44 40 39 39 46 53 57 70 70 79 83 88 94 63 73 63 61 60 85
56 65 63 56 47 38 43 42 39 42 40 43 40 41 41 44 47 54 46 50 53 64 60 67 71 68 50 48 55 65 67 65 72 75 78 83 86 89 94 85 69 67 65 64
50 52 58 50 56 44 42 39 45 38 39 41 40 40 43 42 47 44 44 44 42 49 66 77 81 92 92 87 89 92 90 82 91 93 93 93 93 93 94 94 94 96 82 80
44 42 46 46 45 44 41 40 44 45 44 45 43 45 43 44 45 42 38 37 39 49 57 56 60 82 78 76 75 79 81 84 88 92 91 88 87 87 88 88 90 90 91 93
42 44 42 48 48 47 46 46 48 51 51 48 48 48 46 45 43 39 37 38 46 55 58 67 70 83 85 83 81 81 84 84 83 84 85 83 82 83 80 81 81 86 88 92
52 57 52 53 55 54 50 49 45 48 50 50 53 52 46 50 50 45 43 49 77 80 80 82 87 88 89 90 86 80 80 77 80 71 73 76 80 82 79 83 85 85 87 91
44 47 46 45 52 56 55 54 54 54 60 59 66 73 78 72 59 64 73 80 86 90 86 87 90 92 91 90 85 78 78 77 80 80 76 82 83 76 82 80 79 83 88 90
48 48 56 46 51 55 57 60 61 63 76 84 82 87 88 89 84 86 84 89 90 91 89 91 88 93 91 90 79 77 77 81 77 76 79 79 89 82 84 88 88 88 86 89
64 72 82 82 93 75 87 92 92 91 92 88 90 89 91 93 89 89 87 87 84 83 86 86 86 87 81 78 84 69 75 79 77 81 90 88 90 92 91 86 88 90 92 93
99 100 100 100 100 100 99 92 89 92 94 90 88 90 90 92 91 90 93 89 87 89 89 82 80 75 65 64 74 80 79 84 89 90 90 91 91 90 94 94 91 92 93 93
98 100 99 97 98 98 98 100 93 93 93 93 94 93 94 94 94 94 91 86 83 87 82 80 76 71 59 73 60 81 80 80 86 90 92 91 91 92 92 92 93 92 92 92
97 98 98 97 96 97 99 98 96 93 94 94 93 92 89 84 84 88 88 77 76 84 78 76 75 78 77 86 82 85 84 86 88 91 91 92 93 93 93 92 92 92 92 92
94 96 94 94 96 88 93 95 93 94 96 95 94 93 88 90 93 76 77 82 79 87 85 83 84 80 80 88 90 88 87 87 88 90 90 83 94 93 92 92 91 89 91 90
97 97 96 98 93 88 93 91 90 90 91 83 84 84 84 80 97 95 93 86 82 83 88 83 83 83 87 90 90 89 89 90 92 92 92 91 91 92 90 90 93 90 90 89
96 94 93 94 86 81 80 80 83 84 82 91 88 98 94 92 89 89 92 90 86 83 87 91 89 90 92 91 89 88 89 89 89 90 90 91 90 90 92 90 89 88 93 96
85 84 85 81 73 73 76 77 91 97 89 99 99 100 96 94 92 90 87 93 92 94 91 91 94 92 93 90 87 88 91 90 90 96 93 88 90 93 93 95 96 94 93 94

GFSNGP_sfc_rhum_165.txt.gz
RH
38 31 38 42 38 35 40 40 50 42 39 48 57 72 98 90 93 97 94 91 94 96 97 95 97 96 88 92 89 93 88 83 82 77 74 69 70 82 82 83 76 79 92 86
58 46 45 49 41 37 35 34 34 38 33 34 78 94 93 87 91 95 93 92 90 87 90 95 82 86 79 77 88 84 76 74 59 63 61 64 68 74 80 85 80 92 94 94
72 50 61 75 62 53 46 41 43 50 45 49 75 87 93 88 84 87 90 83 81 94 97 74 69 71 73 66 64 61 62 54 54 54 54 55 52 56 60 67 75 79 86 94
78 73 91 64 46 41 52 48 63 64 66 70 57 61 79 76 81 83 79 80 92 95 70 62 62 63 62 60 61 60 59 53 53 54 54 52 52 55 58 60 60 66 70 75
87 87 61 55 40 45 67 72 56 63 64 64 84 88 86 74 74 78 78 86 79 64 63 62 63 57 58 61 60 60 59 56 54 55 55 57 59 57 58 61 64 65 67 73
98 96 91 55 42 40 52 87 62 62 63 79 84 95 96 75 75 83 79 63 56 56 61 71 78 75 83 88 85 91 82 69 59 63 66 67 68 66 65 65 66 70 69 75
93 94 79 43 42 52 88 81 65 57 68 84 82 85 79 78 78 70 54 51 54 61 73 90 90 84 92 93 96 96 90 83 83 81 75 79 84 82 79 77 78 79 79 83
93 96 87 63 52 76 88 89 62 65 75 79 88 88 85 67 58 54 53 56 57 72 82 89 87 90 95 96 97 92 92 94 94 94 80 78 88 91 85 90 87 91 91 89
77 82 71 76 71 74 76 61 59 68 68 67 68 64 60 62 58 57 62 64 62 74 83 85 86 88 95 98 93 95 96 97 96 94 95 97 96 94 96 94 96 95 96 98
79 72 72 79 77 77 56 54 53 62 61 60 62 60 61 59 56 60 69 77 66 75 84 87 85 78 84 84 79 87 93 96 97 97 95 96 96 96 97 99 99 99 99 100
97 85 69 68 75 69 60 48 48 58 58 58 59 59 56 57 56 59 69 71 72 78 81 84 79 76 73 72 72 80 88 90 91 88 95 96 96 98 97 97 91 98 98 100
91 74 77 70 74 62 58 53 51 60 62 57 56 58 55 57 59 56 64 67 71 75 76 73 67 67 60 60 63 73 78 78 88 94 95 97 97 96 68 87 66 63 66 96
89 74 79 85 83 83 60 55 53 57 56 57 55 54 54 57 61 61 60 65 71 75 74 78 78 76 62 59 64 68 75 75 82 87 94 96 96 98 99 92 71 70 70 68
74 84 83 67 76 59 56 54 58 53 54 56 54 54 58 57 63 59 61 65 66 73 78 81 84 90 94 87 89 92 93 91 92 98 97 97 97 97 98 98 99 97 87 82
59 56 59 59 62 59 56 56 59 63 61 60 59 62 58 62 63 62 63 57 61 71 80 84 84 94 91 80 79 91 91 95 96 98 97 96 96 94 97 97 97 96 99 96
53 54 53 63 64 63 61 62 65 66 65 64 64 64 62 59 61 60 58 60 65 71 72 80 81 91 93 90 90 90 94 95 91 95 96 95 93 94 95 94 95 96 96 98
67 70 67 68 67 68 64 61 62 64 67 66 67 65 58 61 62 60 59 65 73 81 82 82 85 92 90 90 91 95 95 95 91 90 88 91 94 93 93 96 95 95 96 95
60 59 59 63 66 68 67 66 68 70 70 69 73 75 76 74 69 71 80 87 90 94 86 85 89 91 91 92 91 93 95 89 88 87 85 92 91 89 95 93 94 94 97 94
74 81 84 71 75 68 71 72 75 74 78 82 82 82 82 81 80 85 87 84 87 90 94 95 91 92 93 94 86 94 94 94 94 89 89 92 94 90 94 95 96 96 92 96
91 92 92 94 97 87 88 92 88 90 92 87 89 89 92 93 87 86 84 80 81 87 92 93 95 93 92 90 90 87 92 93 90 95 96 96 94 94 95 93 95 95 97 97
97 98 99 99 99 99 97 95 90 92 96 89 85 89 91 96 92 90 90 91 91 90 89 91 90 94 87 87 88 92 94 94 96 93 94 96 96 96 97 97 97 97 97 97
92 97 98 99 99 99 97 96 93 93 94 93 93 94 95 98 97 97 94 91 95 92 94 90 90 87 83 87 83 93 90 89 94 97 97 97 97 98 98 97 97 97 97 97
95 99 99 99 99 99 98 98 97 94 94 96 95 96 95 96 97 98 98 88 93 95 92 94 92 90 86 89 90 90 90 92 92 94 97 97 97 98 98 96 96 96 96 96
96 93 93 97 97 96 98 99 98 97 96 96 96 94 94 98 98 90 94 94 90 93 92 94 91 88 87 94 94 95 93 92 94 96 96 94 96 96 96 96 96 96 96 94
95 96 98 99 98 99 96 97 98 98 98 97 96 94 93 96 96 97 95 95 93 96 96 93 92 90 92 95 96 97 97 96 96 97 96 95 95 96 96 96 97 97 96 97
98 99 99 99 94 94 98 97 99 98 98 98 98 97 97 97 97 98 98 92 93 93 97 97 96 96 96 96 97 97 96 96 97 97 97 97 97 97 97 97 98 96 96 96
97 99 99 97 95 95 98 98 98 99 99 99 99 99 98 99 98 98 98 98 98 97 97 98 98 96 97 97 97 98 98 97 97 97 97 97 97 98 97 96 96 95 96 96

GFSNGP_sfc_rhum_171.txt.gz
RH
49 42 46 42 38 39 48 49 59 50 52 52 67 67 70 76 83 94 94 94 95 97 97 97 96 96 90 88 88 90 92 90 87 84 84 88 89 88 87 90 85 86 88 87
48 42 49 59 50 52 53 54 55 56 55 48 47 54 66 71 94 94 93 92 89 92 93 88 88 91 85 82 85 87 89 89 86 80 78 83 90 89 85 93 87 89 92 92
57 56 66 78 66 56 50 48 55 62 50 52 58 61 81 78 92 91 91 86 89 90 85 86 82 83 86 82 86 88 89 83 75 76 73 82 86 85 79 86 89 87 94 94
87 79 93 66 49 53 68 57 64 58 62 59 61 69 84 86 88 92 89 86 86 81 82 80 85 86 84 82 86 88 82 69 69 68 67 70 72 78 82 77 81 84 80 82
86 84 61 46 32 48 60 57 53 61 68 70 88 88 82 89 87 89 86 84 78 75 76 89 89 81 85 81 82 72 69 68 67 66 65 64 64 69 71 75 78 78 73 74
95 89 77 64 50 50 54 80 61 71 67 68 89 89 81 91 88 89 84 78 73 79 89 85 83 84 83 83 75 72 70 69 69 70 68 68 68 70 72 77 71 75 76 78
80 81 76 58 50 57 85 71 73 78 70 77 87 85 80 92 90 84 83 90 87 83 83 86 86 82 87 88 82 88 84 77 76 76 75 78 79 79 81 83 80 83 79 77
89 94 89 55 62 71 72 78 82 83 80 75 84 91 95 94 96 94 91 87 76 77 84 84 82 83 88 84 90 91 90 90 90 90 76 79 87 90 84 91 92 96 93 88
85 85 70 69 75 72 79 80 75 79 78 75 85 93 96 97 83 78 79 81 76 80 84 85 82 77 84 88 94 93 92 96 98 98 98 96 95 97 98 95 98 98 98 100
100 88 75 71 72 75 73 80 75 77 72 81 86 91 83 76 74 80 87 87 83 83 85 87 82 68 70 82 80 84 91 96 99 98 100 98 97 98 98 98 99 98 100 100
97 83 72 69 72 70 68 75 84 71 69 74 80 78 72 72 72 78 84 82 85 85 85 87 82 79 79 77 77 75 78 84 89 92 98 99 98 96 97 98 88 91 94 95
93 75 80 76 72 72 80 78 77 79 74 73 72 71 66 70 70 74 80 82 82 84 81 84 80 78 80 77 74 71 73 81 92 93 97 97 98 98 82 81 72 66 66 93
82 74 77 70 70 82 87 84 72 72 68 72 70 65 64 70 69 72 77 80 80 83 81 88 86 83 79 75 73 74 76 81 93 92 97 98 96 95 97 92 76 74 73 78
68 69 79 84 88 79 79 81 76 71 71 71 68 65 69 69 74 74 74 73 75 79 84 87 88 89 90 87 85 90 93 94 96 98 97 98 98 97 98 99 99 97 89 82
70 71 74 73 66 65 68 69 75 78 76 75 72 73 71 72 74 73 72 69 68 76 77 78 80 85 84 80 78 84 86 95 95 96 96 95 96 98 97 98 98 98 97 97
69 62 62 68 68 69 69 69 76 79 80 80 76 77 70 70 74 76 76 74 74 78 76 82 82 85 87 84 84 87 87 90 89 91 96 96 96 96 97 97 97 96 97 96
81 75 77 77 75 74 68 66 70 74 77 77 76 76 72 77 79 79 80 78 83 86 84 85 82 89 89 87 87 89 92 93 89 94 95 95 95 96 96 97 96 96 96 96
77 84 87 87 89 87 76 69 72 76 74 74 80 84 88 85 79 83 87 90 93 94 92 90 90 90 92 91 86 89 90 89 90 90 90 96 96 95 97 97 96 95 95 97
86 89 91 87 93 91 85 75 78 77 83 86 87 85 84 85 88 89 90 89 91 90 84 93 90 90 91 92 83 88 90 89 90 93 94 98 98 96 96 96 94 95 92 95
95 96 93 98 98 95 94 91 92 91 93 89 89 88 88 90 87 88 89 85 83 86 91 88 91 90 88 88 89 90 92 94 91 96 98 98 97 97 95 95 94 93 94 95
94 97 99 99 99 97 96 95 94 93 95 91 85 85 84 88 90 89 88 85 84 91 90 89 87 92 86 89 92 95 97 97 97 97 97 98 98 98 97 96 94 93 94 97
98 97 98 99 99 99 96 95 93 93 93 91 90 90 89 93 94 92 94 87 93 93 93 92 91 91 90 94 91 97 96 96 96 97 97 97 97 96 95 95 95 96 96 97
95 92 95 99 99 100 97 96 95 94 93 94 95 96 96 97 94 94 92 86 96 93 91 96 97 95 96 96 97 97 97 97 97 96 96 96 96 96 95 95 96 97 97 97
94 95 100 99 98 95 97 99 97 97 98 98 97 96 96 98 98 98 98 97 97 98 97 97 98 97 96 98 98 98 97 97 97 96 96 92 95 96 97 97 97 97 97 97
99 98 97 97 98 99 99 99 98 98 97 96 97 95 93 98 96 98 99 98 96 97 98 98 98 97 97 98 97 97 96 96 96 96 96 97 97 97 97 97 97 97 97 96
98 99 98 98 99 98 98 97 98 98 98 98 99 99 99 99 98 98 97 97 98 98 98 98 98 98 98 97 97 97 97 97 97 96 96 97 97 97 97 97 97 97 96 97
98 96 97 98 99 98 98 97 97 98 98 98 99 98 99 98 100 100 99 99 99 99 98 99 99 98 98 98 98 98 98 98 98 98 98 97 97 97 96 96 96 96 97 97

GFSNGP_sfc_rhum_174.txt.gz
RH
42 36 50 45 41 40 47 48 54 41 46 45 63 64 70 70 65 80 92 93 93 96 97 97 97 95 92 92 92 89 91 89 90 91 92 90 86 90 89 84 86 88 89 89
49 41 48 50 47 51 50 49 52 56 58 48 47 58 60 59 69 81 92 91 91 92 95 95 94 91 86 88 88 84 87 86 86 86 87 89 87 89 87 85 88 89 93 94
56 51 60 81 70 58 55 62 60 67 53 56 58 57 64 64 76 81 89 91 92 90 89 90 86 84 81 80 81 83 85 85 83 81 80 87 85 80 86 83 82 86 94 95
71 72 95 66 52 50 68 62 62 55 53 57 58 63 72 83 87 88 92 88 86 86 83 80 76 78 77 78 79 85 88 82 80 80 78 87 88 79 83 86 85 81 80 82
86 86 61 54 40 44 55 58 50 56 58 68 83 86 79 83 90 89 91 86 84 82 79 77 78 79 77 86 90 91 87 75 73 70 75 77 84 86 82 79 81 79 69 72
94 89 76 56 49 54 54 70 54 69 74 71 89 88 77 77 91 93 91 88 87 81 78 86 87 83 90 92 92 88 75 70 70 68 67 69 71 74 75 77 71 72 71 74
85 91 78 51 43 56 72 66 65 80 80 80 87 84 80 93 92 92 92 89 80 81 87 86 89 89 91 92 89 86 80 72 70 70 67 68 72 76 79 79 77 84 72 72
91 96 91 60 60 67 69 75 83 81 78 80 81 83 92 94 95 95 96 93 89 87 87 87 89 87 89 88 89 88 87 87 88 87 70 74 80 85 79 88 89 92 90 90
83 86 85 82 81 73 81 79 77 84 73 79 84 85 94 97 98 96 97 97 90 89 85 84 88 82 87 89 89 90 90 91 94 95 96 94 94 96 97 97 98 99 99 100
98 98 84 72 63 71 72 78 73 78 83 86 84 86 95 96 93 93 92 91 89 90 91 90 85 74 76 80 80 82 89 95 99 97 100 99 98 98 98 99 100 99 99 100
96 75 70 68 65 71 64 72 79 82 85 78 85 89 90 88 85 86 86 84 87 89 88 88 82 78 75 77 76 75 78 84 88 91 98 99 98 98 97 100 94 97 97 95
85 74 79 74 70 62 66 70 78 84 83 79 81 85 81 82 79 82 83 83 84 84 81 85 78 78 77 77 74 72 76 83 92 94 97 96 95 97 81 82 83 62 63 90
69 72 79 79 70 61 74 83 87 85 79 80 77 76 77 79 79 80 85 82 80 82 81 87 85 84 80 76 75 76 81 84 92 93 96 98 98 95 91 95 77 70 72 76
73 77 75 64 77 79 82 76 75 76 77 76 72 73 76 78 80 80 82 80 79 82 86 87 88 89 91 87 87 91 91 89 93 95 95 96 96 97 96 96 96 96 89 81
53 56 60 64 83 74 73 74 74 78 80 79 76 77 77 78 80 78 78 75 74 82 82 83 84 88 87 83 82 87 85 95 95 96 96 95 96 95 94 97 97 97 98 97
79 75 68 74 73 74 75 72 77 80 82 84 79 78 77 77 80 79 78 76 78 84 82 86 87 89 88 86 86 87 87 89 92 94 96 97 97 97 97 97 96 97 97 96
84 80 83 82 83 86 84 79 75 77 82 83 82 84 76 79 80 81 80 79 86 89 88 88 85 92 89 88 87 87 88 89 88 91 93 93 93 94 93 96 96 97 96 94
85 86 86 89 91 93 90 86 80 82 83 85 90 89 91 87 80 86 89 92 93 95 92 90 90 91 91 89 85 88 87 85 88 89 89 93 93 92 95 96 95 96 96 95
87 87 90 89 97 97 95 91 85 79 83 91 92 91 93 91 91 92 93 92 93 93 88 93 91 91 91 92 86 90 92 91 90 90 90 96 97 97 97 97 97 96 96 96
92 94 95 97 97 95 96 94 93 93 93 91 93 92 93 94 92 91 92 89 87 92 92 90 93 91 90 89 88 90 91 93 92 94 97 97 97 97 97 97 95 95 96 95
97 97 99 99 99 97 97 97 95 92 93 92 91 92 92 96 93 91 91 89 89 90 90 90 89 93 87 89 90 95 95 95 95 95 95 96 96 97 97 97 97 96 96 95
96 94 99 99 99 98 96 96 94 93 92 91 91 92 90 92 92 92 94 89 93 93 90 92 91 90 89 93 91 96 96 95 95 97 97 98 97 97 96 96 96 95 95 95
96 93 99 99 99 100 97 96 95 94 94 94 93 93 94 94 93 92 89 84 95 90 93 97 96 95 95 96 97 97 96 96 97 97 97 97 96 96 94 94 95 96 98 97
96 99 99 98 98 98 98 99 98 98 99 98 96 97 97 97 98 98 97 97 97 97 97 98 98 97 96 98 98 97 97 97 97 97 97 95 96 96 96 97 97 97 97 97
98 97 96 96 94 97 98 98 97 98 97 97 98 97 96 98 97 99 98 98 97 97 98 96 96 96 98 98 98 98 97 97 97 97 96 96 96 97 97 98 97 97 97 97
97 97 98 99 99 98 98 96 98 97 96 98 98 98 98 98 98 98 98 97 97 97 98 98 98 98 98 97 97 97 97 97 97 97 97 97 97 97 97 97 97 96 97 97
98 96 96 98 98 94 96 98 98 99 99 99 100 98 98 98 99 100 100 99 99 99 98 98 98 98 98 98 98 98 98 98 97 98 98 98 97 97 97 97 97 97 97 97

GFSNGP_sfc_rhum_177.txt.gz
RH
58 45 46 54 47 40 35 35 47 46 39 32 63 69 85 84 54 58 71 74 91 96 92 94 98 95 80 80 79 79 87 78 74 71 69 66 67 61 66 64 67 69 71 71
49 40 41 49 41 42 37 33 38 38 35 33 39 43 48 48 56 61 64 74 79 80 87 84 81 81 73 75 75 76 68 72 68 67 64 65 68 63 60 66 71 73 79 83
59 46 50 72 55 45 40 37 40 48 43 44 44 43 44 43 48 56 61 69 75 74 79 78 74 71 71 71 76 78 64 64 67 66 64 59 58 56 50 54 57 69 83 83
75 65 93 54 43 42 60 51 59 50 45 42 40 40 46 55 60 67 70 71 70 69 74 70 67 68 68 71 82 70 63 61 62 64 63 59 53 53 51 49 49 47 53 59
95 90 57 46 39 45 48 43 39 46 44 44 54 69 56 66 71 71 70 67 65 66 68 70 69 69 68 78 69 68 61 57 56 56 56 62 56 51 52 53 53 50 46 47
86 91 84 44 45 46 47 70 45 50 58 56 64 63 53 64 72 73 72 67 67 66 66 72 78 70 72 83 83 73 61 56 53 54 54 59 58 55 51 50 50 50 50 48
76 77 55 53 51 48 60 61 63 72 66 64 69 61 61 74 75 72 70 71 69 67 68 73 84 79 98 98 91 88 76 55 52 50 51 51 56 55 54 48 51 56 54 51
79 82 70 77 62 64 73 71 71 67 66 71 70 70 68 74 77 76 75 73 68 71 73 73 80 95 95 93 89 89 85 81 78 72 50 47 50 50 48 50 56 64 65 64
66 69 74 68 66 63 72 74 70 69 62 69 69 67 67 75 79 77 78 79 73 74 78 82 84 85 93 90 89 88 85 86 86 88 91 85 81 82 71 67 73 83 82 85
90 79 70 61 60 62 62 76 65 56 61 69 73 70 69 76 78 79 89 97 81 81 86 88 81 74 71 68 65 71 80 85 89 89 89 90 86 86 85 89 89 90 90 91
93 76 68 61 63 63 62 76 67 59 67 71 69 68 68 74 77 75 79 79 83 89 89 86 77 68 62 60 59 55 57 61 64 70 85 89 90 91 91 93 91 91 90 89
79 61 62 58 59 62 64 51 51 67 76 70 66 64 68 70 70 71 75 74 76 78 76 74 69 65 60 58 55 52 54 60 64 67 76 79 83 88 85 88 88 80 77 85
66 55 63 66 70 61 60 72 72 73 71 69 63 64 66 68 70 74 71 72 73 80 75 82 82 78 65 61 58 61 64 65 71 74 76 79 81 82 88 84 68 71 64 70
58 62 65 67 68 52 69 67 65 61 64 65 63 62 65 66 71 71 71 68 66 67 76 80 81 88 87 84 82 84 84 81 85 87 88 89 89 88 85 80 87 91 78 78
53 52 54 51 51 60 68 62 63 63 66 67 66 66 65 67 68 70 68 66 64 66 66 67 68 80 77 74 74 80 78 81 85 86 85 83 83 84 82 75 77 81 86 91
59 67 64 71 70 67 68 64 64 65 67 69 70 68 66 64 66 66 67 68 72 74 70 80 79 85 88 85 83 80 80 80 82 80 81 81 80 79 76 74 76 80 82 81
77 74 68 70 76 75 74 74 73 67 69 70 72 72 69 68 70 70 69 72 80 88 87 87 88 93 90 89 86 78 79 77 80 74 72 73 75 76 74 80 81 80 82 84
75 78 78 79 80 81 78 79 82 75 74 78 87 97 98 99 96 84 83 85 88 88 88 88 90 92 91 90 81 74 74 70 72 72 70 78 75 72 77 77 77 79 78 79
83 83 84 86 93 85 83 82 82 84 86 93 96 100 100 100 100 96 90 91 92 89 87 90 86 88 88 88 75 72 72 72 70 67 69 75 84 76 81 84 82 83 80 80
95 94 93 95 93 88 92 92 93 92 94 95 94 96 98 91 91 90 90 87 87 84 84 86 86 81 79 80 83 70 78 80 75 77 84 79 86 90 87 84 82 85 89 89
96 96 98 99 98 96 97 96 92 92 93 94 99 92 88 89 88 89 88 80 88 87 76 84 76 73 68 71 77 80 85 88 88 86 87 90 89 87 87 87 87 88 90 92
92 98 99 99 97 96 96 95 90 92 92 92 91 91 89 89 88 86 85 78 73 86 74 71 70 77 72 86 72 87 84 83 84 86 87 89 89 90 90 89 91 92 92 92
95 97 98 99 99 97 95 95 95 93 94 94 94 92 87 80 79 76 74 75 74 79 72 76 82 89 91 90 90 91 90 90 90 90 90 92 92 91 90 89 90 90 89 89
96 95 98 96 91 89 96 97 94 95 98 97 99 99 89 92 96 88 84 89 92 92 90 89 91 90 91 93 93 92 92 92 92 93 90 91 93 92 91 90 89 90 94 94
96 96 93 94 91 92 91 92 89 91 91 89 91 89 91 89 92 93 93 93 94 94 96 94 94 95 96 96 96 96 95 95 95 95 94 94 94 93 91 91 91 92 93 93
93 92 92 94 91 88 86 83 88 87 84 90 90 94 94 93 91 89 91 93 91 91 92 95 95 95 95 94 94 94 94 93 93 93 93 92 92 92 93 93 93 93 93 93
92 91 89 89 87 88 88 87 87 92 92 95 94 94 91 95 97 93 98 95 94 96 95 96 95 95 93 94 93 92 92 92 93 91 93 93 93 93 94 93 93 93 93 93

GFSNGP_sfc_rhum_180.txt.gz
RH
34 28 33 41 38 34 38 44 53 49 37 31 54 54 85 70 40 37 36 43 73 90 80 96 100 93 73 70 77 68 74 68 68 59 57 52 48 47 54 52 52 55 58 59
34 26 26 31 28 27 28 31 36 38 32 23 22 20 25 24 28 33 38 41 47 64 70 74 77 72 61 64 66 62 64 66 59 57 52 53 50 47 50 52 53 56 66 86
42 27 32 58 42 33 29 27 30 38 31 24 24 25 26 26 26 31 40 43 48 52 61 65 64 61 58 59 59 59 59 60 54 53 48 48 44 40 40 44 49 63 78 76
58 48 90 46 28 28 40 31 35 32 30 26 26 23 25 28 34 41 45 50 51 50 53 58 56 56 54 54 57 60 63 58 52 51 46 42 40 37 38 39 41 41 47 52
86 60 47 38 29 31 34 37 27 29 26 28 30 39 40 40 47 50 52 51 50 49 50 55 54 53 52 56 57 62 61 52 50 50 46 42 40 39 38 38 39 38 36 38
90 90 64 34 29 36 33 54 49 44 54 62 45 57 54 44 47 50 52 50 49 49 50 56 62 55 61 70 66 68 56 52 46 48 46 45 41 40 39 38 38 36 37 36
62 76 45 39 54 44 58 52 58 59 58 62 64 55 48 49 50 52 50 51 50 50 52 59 72 68 99 100 100 99 73 50 47 44 44 44 43 39 40 38 39 42 40 40
56 65 68 46 44 57 55 47 50 58 57 55 54 54 53 50 53 53 54 53 52 52 54 60 63 94 100 100 100 100 100 95 75 68 40 38 44 42 39 39 43 47 47 47
43 43 42 49 49 39 41 46 53 58 57 56 52 49 46 52 54 53 56 58 54 52 58 60 62 72 100 100 100 100 100 100 100 100 98 70 68 73 56 48 55 66 70 78
73 52 42 39 37 39 39 51 47 54 67 62 52 46 48 47 51 54 62 73 57 61 68 71 66 70 79 78 71 76 89 97 98 100 100 100 89 86 83 90 91 97 93 94
57 41 38 38 37 39 40 43 48 53 46 49 50 52 48 48 49 50 60 64 68 78 82 80 71 73 69 65 60 60 58 57 55 62 84 95 100 100 100 100 99 100 100 100
71 40 40 34 33 35 40 45 41 56 56 52 49 49 47 49 48 49 55 60 63 69 71 68 66 67 61 55 53 51 51 49 48 50 63 69 75 94 89 90 86 81 81 97
48 37 38 38 40 39 39 38 38 55 49 47 41 43 46 47 50 62 56 59 63 70 68 77 92 80 58 55 54 53 50 49 53 58 60 66 70 76 92 96 79 83 79 78
33 34 42 40 41 36 34 35 46 48 44 46 45 45 49 50 52 56 59 60 59 61 72 82 82 97 100 99 94 95 100 74 90 94 99 99 100 100 99 100 94 93 78 70
30 30 35 35 38 44 39 46 51 48 46 49 49 54 52 53 53 56 55 57 58 59 62 63 65 80 70 68 67 72 73 75 88 86 83 79 78 78 77 80 81 80 80 77
29 35 43 53 52 52 53 54 53 51 50 54 55 56 54 53 53 54 56 57 63 65 60 81 70 92 92 86 82 77 79 75 77 73 75 75 72 72 70 70 67 65 70 75
47 47 45 55 54 59 59 55 54 55 56 59 64 62 58 61 62 63 60 62 77 100 98 93 100 97 94 96 88 72 72 69 75 67 69 70 71 71 66 67 66 62 70 89
52 56 64 65 64 64 64 65 63 64 63 65 78 94 100 100 100 99 98 95 97 100 100 100 100 91 89 94 80 65 68 67 71 72 67 74 68 61 61 57 57 63 68 69
72 76 78 76 78 72 70 67 70 75 88 95 99 100 100 100 100 100 100 99 97 100 100 100 94 91 90 89 73 63 68 72 65 62 64 66 74 57 64 74 72 76 70 70
97 96 90 85 82 81 87 92 98 100 100 100 100 100 100 100 100 100 100 100 99 91 99 95 86 78 74 73 81 57 69 76 65 66 77 65 76 85 78 72 76 86 98 93
92 96 98 93 93 93 95 100 100 100 100 100 100 100 100 100 100 100 98 79 98 93 76 81 67 60 56 59 68 70 81 90 87 80 82 87 94 85 90 98 96 95 98 94
94 96 96 92 91 94 95 99 94 99 97 92 89 90 93 96 94 90 91 80 66 81 66 63 64 69 59 76 61 83 81 81 84 86 87 93 91 95 92 91 88 90 91 92
93 91 95 96 93 93 93 92 94 94 94 93 92 96 90 77 72 74 75 67 61 74 60 69 74 82 82 91 92 96 94 91 91 89 90 91 90 89 87 87 88 88 88 90
94 92 92 90 87 80 91 93 87 90 94 94 98 96 85 89 92 76 73 83 90 96 97 95 93 84 85 99 98 98 96 96 95 96 93 94 97 97 96 96 94 95 95 93
95 91 89 88 82 85 85 84 81 81 82 80 81 78 79 74 89 85 89 89 88 88 95 94 93 94 100 100 100 100 99 99 99 98 96 96 95 95 95 94 92 95 97 98
84 79 81 83 78 75 75 73 79 76 74 83 82 88 91 86 81 78 83 86 83 81 88 95 96 99 100 97 99 100 98 94 96 94 95 94 94 92 94 94 96 95 93 92
82 78 74 76 72 70 70 71 79 82 82 85 85 86 80 88 89 82 88 91 92 92 91 92 92 89 90 92 92 93 95 95 96 97 100 100 99 98 95 93 92 91 92 92

GFSNGP_sfc_rhum_186.txt.gz
RH
30 23 23 25 22 20 27 33 42 32 27 25 29 31 48 46 34 32 26 25 40 75 87 97 90 84 70 68 74 69 70 70 73 66 66 57 59 62 70 67 65 67 68 67
37 27 25 27 22 20 19 19 20 22 23 20 25 22 21 21 22 30 35 31 24 51 66 78 82 78 67 67 71 68 66 69 66 62 59 60 60 63 67 70 71 72 78 96
79 41 38 56 40 27 25 23 24 31 30 25 22 22 30 33 33 29 54 50 26 34 56 61 72 73 72 66 70 69 67 65 64 60 58 55 52 54 60 63 65 77 86 89
69 53 89 50 27 27 34 28 32 25 22 27 35 38 43 59 66 65 66 40 41 42 45 58 63 72 73 65 72 71 68 64 62 60 57 52 49 51 56 58 63 69 73 79
78 70 50 38 28 30 36 47 51 28 35 37 37 41 44 68 75 77 85 53 45 48 49 58 58 67 69 66 72 70 68 65 61 61 55 52 47 51 52 55 61 60 62 68
78 73 64 38 37 43 49 67 38 39 42 40 39 74 75 74 81 85 85 39 43 45 49 58 64 62 69 71 73 74 70 66 60 62 54 50 51 53 50 53 53 50 55 61
72 77 77 36 43 35 60 55 37 34 35 40 54 58 65 68 67 76 54 40 43 46 50 59 71 69 97 100 98 92 77 67 65 62 61 63 58 47 50 51 53 60 58 63
88 84 71 44 42 59 47 36 32 34 38 46 47 51 54 49 45 41 45 47 45 50 52 60 61 99 100 100 100 100 100 97 92 93 85 59 52 51 53 56 62 62 62 68
64 69 60 61 66 43 34 35 33 36 34 36 38 40 47 48 46 42 62 66 46 46 54 59 60 92 99 100 100 100 100 100 100 100 96 67 63 68 65 61 70 74 71 81
76 50 43 35 28 25 22 24 23 26 29 32 37 41 58 48 47 52 68 72 48 51 61 69 62 75 88 94 90 97 99 99 100 100 100 99 84 88 80 82 83 83 81 85
78 66 51 35 31 34 32 22 23 24 27 32 36 44 66 76 63 46 49 56 60 66 75 74 65 69 70 80 86 96 97 97 98 94 91 99 100 100 98 99 98 89 88 88
74 52 58 47 41 44 45 42 25 28 32 29 32 40 47 47 41 37 46 60 56 61 67 64 61 64 70 77 78 92 97 95 91 86 87 89 98 99 97 94 93 98 98 96
68 44 42 41 37 40 47 30 24 30 32 32 30 39 44 43 41 49 42 46 55 69 77 82 92 79 75 79 82 88 92 91 86 80 76 77 82 92 96 96 89 89 98 94
37 36 41 35 37 29 26 24 30 28 32 33 33 45 48 46 44 43 45 47 50 61 92 98 97 100 100 89 90 96 95 86 88 86 88 86 87 88 91 92 95 96 91 91
30 27 29 25 23 22 21 23 28 35 37 46 58 74 48 50 50 51 50 50 57 63 73 73 80 92 94 89 87 94 92 85 86 85 91 84 86 87 87 91 91 89 92 95
26 30 29 31 28 25 25 29 41 42 49 53 56 60 51 51 52 53 56 76 90 97 94 92 87 95 96 90 88 91 86 86 87 83 91 88 86 85 85 85 87 90 90 91
46 48 46 47 47 38 34 33 48 48 50 58 68 68 69 72 71 72 70 86 99 99 100 99 100 100 100 100 100 98 90 84 82 85 84 84 84 83 81 82 82 82 84 88
50 53 58 59 60 60 58 67 61 59 72 79 96 98 100 100 96 97 98 99 99 99 99 100 100 100 100 100 100 98 96 94 88 88 86 86 84 79 80 80 79 81 86 87
73 81 85 79 78 76 72 72 79 84 97 97 99 100 100 100 100 100 99 99 97 99 100 100 99 99 99 99 99 100 99 99 98 93 83 87 92 86 86 87 86 86 85 88
95 97 99 97 96 98 99 100 100 100 100 100 100 100 99 100 100 100 100 99 99 96 94 97 94 96 97 97 98 98 99 98 90 90 92 89 91 92 90 86 89 88 90 90
96 99 98 99 98 98 100 100 99 99 99 99 99 99 99 100 100 100 100 88 94 91 86 89 83 78 76 81 84 88 97 98 99 94 96 93 92 92 92 91 89 89 89 90
96 97 93 94 95 97 98 98 96 95 94 95 98 100 97 96 94 89 89 87 77 86 82 80 79 84 76 82 76 97 92 93 94 95 94 95 93 92 91 89 90 89 88 89
94 89 90 93 93 93 90 90 94 91 95 96 97 98 94 93 94 96 94 85 82 95 85 89 88 88 87 98 99 100 99 98 98 97 97 97 97 97 96 96 96 96 97 97
97 91 93 92 93 86 89 92 88 91 92 92 95 92 93 96 94 91 91 86 88 98 96 93 94 90 90 99 100 100 98 98 97 97 96 96 97 98 97 97 98 98 98 98
99 99 99 98 97 96 91 91 93 92 90 88 88 86 85 84 95 92 90 89 84 87 94 94 93 94 97 98 98 97 96 97 97 97 97 96 96 97 97 98 98 98 98 98
98 96 96 98 97 96 94 88 93 94 90 91 88 91 90 84 81 84 89 92 93 90 93 95 95 94 96 95 95 95 95 97 95 95 95 96 96 96 96 96 97 97 95 95
96 96 94 94 94 93 94 94 92 91 92 95 93 90 87 90 89 85 90 92 92 95 94 96 95 94 95 96 95 94 94 94 94 95 95 96 95 96 95 95 95 95 95 95

GFSNGP_sfc_rhum_189.txt.gz
RH
39 34 35 35 33 29 31 30 42 45 40 41 41 43 46 49 50 50 46 43 54 80 81 97 92 91 79 85 79 76 77 77 75 74 73 69 69 73 78 74 74 76 76 73
74 52 54 59 35 32 34 32 30 31 31 29 31 36 70 73 70 72 74 50 58 64 80 85 80 81 76 82 76 72 74 79 73 73 68 69 71 76 74 78 78 79 84 90
93 60 60 92 64 43 39 35 37 45 38 43 52 56 81 84 76 73 76 78 83 84 70 78 83 79 80 79 77 74 75 76 70 68 64 64 64 66 72 74 78 91 93 91
82 67 91 51 35 36 44 39 53 58 67 61 55 60 79 83 87 75 75 77 78 89 80 86 90 88 79 77 78 74 72 71 68 66 62 58 60 66 73 71 79 91 92 91
84 78 61 52 38 38 46 51 62 71 70 57 45 58 68 69 76 77 86 86 87 89 74 84 84 80 77 78 78 76 74 72 68 64 60 58 61 67 68 68 77 83 84 92
89 93 82 56 45 47 58 77 67 55 51 53 55 83 85 71 76 72 79 75 78 63 62 79 82 79 83 84 85 80 75 71 67 64 61 57 59 65 64 64 73 69 78 86
96 97 83 63 51 54 85 86 75 48 48 57 70 74 66 71 72 70 70 67 60 57 65 74 88 83 94 95 96 90 80 71 69 64 62 57 60 64 63 63 66 70 74 82
87 91 88 69 66 85 88 82 87 48 47 60 59 58 59 59 55 53 55 67 60 60 66 75 87 91 100 99 100 93 100 95 82 76 71 62 68 72 76 70 69 73 75 86
85 95 77 83 85 64 66 66 51 44 48 48 49 53 69 76 71 68 65 79 65 58 74 80 91 98 99 100 98 98 98 100 100 98 95 92 96 98 86 72 77 77 77 86
86 72 62 53 53 52 53 55 40 40 42 45 52 52 73 74 74 80 78 83 87 65 80 86 95 97 96 98 92 91 98 99 100 100 100 100 97 88 76 85 88 83 87 88
76 59 61 56 51 57 63 61 55 43 35 43 47 47 61 74 70 80 70 72 82 82 86 86 92 96 96 92 91 93 97 97 98 98 98 99 99 90 85 89 82 86 85 87
79 63 75 64 56 51 57 54 52 52 42 43 44 44 47 54 59 57 56 75 81 82 84 81 84 88 94 91 89 97 98 98 98 98 98 98 98 99 96 98 98 82 82 81
66 58 49 46 50 42 48 51 56 52 40 46 43 41 48 54 55 61 57 59 73 82 85 84 87 89 89 87 92 98 98 98 98 98 98 98 99 98 99 98 93 97 92 88
42 43 48 45 52 42 42 36 39 35 39 45 60 75 82 65 61 62 71 72 71 80 87 92 91 95 97 94 94 99 99 96 99 99 99 98 97 95 96 97 98 100 94 95
41 38 40 41 39 36 34 32 34 48 62 67 81 86 78 75 70 79 78 77 82 86 89 88 92 98 92 91 95 98 97 98 98 98 98 92 91 94 96 96 95 97 99 98
43 50 48 57 57 60 58 48 62 68 73 74 80 73 72 70 72 80 87 97 97 98 99 94 93 98 98 94 98 99 99 98 99 98 95 90 93 92 95 95 95 95 95 94
66 76 77 80 77 76 79 78 71 78 89 88 91 87 84 84 89 95 98 97 98 99 99 99 100 100 99 100 99 99 99 99 98 99 98 92 89 92 91 94 94 95 94 92
77 85 87 84 87 87 84 87 88 89 93 98 98 98 98 98 97 99 99 93 94 97 99 98 99 99 99 99 99 99 99 99 99 99 99 98 96 94 94 93 93 93 95 94
84 89 91 87 88 88 92 95 98 98 98 97 99 99 99 99 99 99 98 97 98 98 99 98 99 100 99 100 99 99 100 99 99 99 99 99 99 98 98 94 90 92 93 95
89 88 88 94 97 97 99 99 100 99 100 99 99 99 98 99 99 99 98 99 99 99 93 98 98 99 98 99 99 99 100 99 99 99 99 99 98 97 98 96 94 94 95 94
96 99 99 98 98 99 99 99 99 98 99 99 98 98 98 99 99 99 97 93 93 95 93 96 95 97 94 97 98 98 98 99 99 98 99 99 98 98 98 97 96 96 95 95
98 99 98 98 98 98 98 98 98 96 97 96 98 97 96 97 94 96 97 95 98 99 93 90 91 93 90 93 91 96 98 98 98 99 99 99 98 97 96 96 96 95 95 95
99 99 98 97 98 98 97 96 97 96 97 97 97 96 96 97 97 94 96 95 98 95 92 96 97 96 98 98 99 98 99 99 99 99 99 99 99 98 98 97 97 97 97 96
99 99 99 99 99 98 97 98 93 95 95 95 96 97 96 95 96 95 93 89 95 96 97 97 98 99 98 99 99 99 99 99 99 99 99 99 99 99 99 98 98 99 99 99
99 99 99 99 98 98 97 98 98 97 95 94 93 90 87 91 95 98 97 97 93 94 97 94 93 96 97 97 98 98 98 98 98 99 99 98 99 98 98 99 98 98 98 97
99 99 99 99 99 99 98 98 98 98 95 96 96 96 96 94 93 95 93 93 96 97 98 97 95 96 96 95 95 95 96 95 95 95 96 96 96 97 97 97 96 97 96 96
98 98 98 97 97 97 97 96 96 97 97 95 96 95 94 96 92 92 94 95 93 96 97 95 95 94 95 94 94 94 94 94 95 95 95 96 95 96 96 96 96 96 96 95